World > North America > United States > Utah > Richville  

Richville, UT Hourly Weather Updates

Feedback E-mail the Weather

Quick Clicks

Richville, UT Weather Maps

°F °C°F °C
Richville Weather Map
UTC Time: 7/21/2024, 01:51
Your Time:

Richville, UT Regional Weather

Expires:202407210200;;015425
ASUS45 KSLC 210110
RWRUT 

UTAH REGIONAL WEATHER ROUNDUP
NATIONAL WEATHER SERVICE SALT LAKE CITY UT
700 PM MDT SAT JUL 20 2024


UTZ101>105-107>111-210200-

NORTHERN UTAH
  
CITY           SKY/WX    TMP DP  RH WIND       PRES   REMARKS
BRIGHAM CITY   SUNNY     97  26   8 NW6       30.09F HX  91           
HILL AFB       SUNNY     95  34  12 NE7       30.10F HX  90           
LOGAN          MOSUNNY   94  39  14 N8        30.11F HX  90           
OGDEN          SUNNY    100  41  13 N10       30.09S HX  95           
SALT LAKE CITY MOSUNNY   98  40  13 E6        30.07S HX  93           
TOOELE VALLEY  SUNNY     95  37  13 N13       30.10S HX  90           
WENDOVER       SUNNY     99  36  11 E13       30.08F HX  93           
HEBER CITY     MOSUNNY   82  51  34 N8        30.21R                  
WEST JORDAN    MOSUNNY   96  36  12 NW14      30.12F HX  91           

$$


SKY/WX - Weather  TMP - Temperature  DP - Dew Point  RH - Humidity
WIND - Wind Direction/Speed PRES - Barometric Pressure VSB - Visibility
WCI - Wind Chill Index E13G22 Wind - East Wind 13 mph/Gusts of 22 mph

Trending Headlines

Trending Entertainment Headlines

Richville Radar Loop

Use the map search tool if you want to place a location marker on the radar map...

Richville Quick Facts

National Two Day Weather Forecast


E-mail the Richville Weather Forecast

Voice your opinion or tell us about page issues...